Observations for Trim Market St
| Time | AQI | Temp °C | Hum % | Pres Pa | CO μg/m³ | H₂S μg/m³ | NO μg/m³ | NO₂ μg/m³ | O₃ μg/m³ | SO₂ μg/m³ | PM1 μg/m³ | PM2.5 μg/m³ | PM10 μg/m³ |
|---|---|---|---|---|---|---|---|---|---|---|---|---|---|
| Tuesday 11 August 2026 | |||||||||||||
| 08:31 | 1 | 25.6 | 51 | 58,341 | 0.41 | 0 | 1.4 | 10.43 | 0 | 0 | 1.43 | 3.45 | 3.82 |
| 08:30 | 1 | 25.4 | 51 | 57,723 | 0.41 | 0 | 1.47 | 11.1 | 0 | 0 | 1.43 | 3.44 | 3.83 |
| 08:29 | 1 | 25.2 | 51 | 57,181 | 0.43 | 0 | 1.58 | 10.14 | 0 | 0 | 0 | 2.91 | 3.1 |
| 08:28 | 1 | 25.1 | 52 | 56,731 | 0.41 | 0 | 1.59 | 9.73 | 0 | 0 | 0.71 | 2.9 | 3.11 |
| 08:24 | 1 | 24.5 | 53 | 56,001 | 0.4 | 0 | 1.54 | 8.51 | 0 | 0 | 0.71 | 2.83 | 3.89 |
| 08:21 | 1 | 24.1 | 54 | 56,130 | 0.43 | 0 | 1.92 | 12.08 | 9.93 | 0 | 0.71 | 2.79 | 3.2 |
| 08:20 | 1 | 23.9 | 54 | 56,219 | 0.43 | 0 | 2.16 | 8.87 | 0 | 0 | 0 | 3.29 | 3.92 |
| 08:15 | 1 | 23.3 | 56 | 56,909 | 0.47 | 0 | 2.63 | 13.41 | 24.15 | 0 | 0.71 | 3.22 | 3.97 |
| 08:11 | 1 | 22.9 | 57 | 56,892 | 0.51 | 0 | 2.61 | 10.17 | 0 | 0 | 0.71 | 3.18 | 4 |
| 08:10 | 1 | 22.7 | 57 | 56,990 | 0.52 | 0 | 2.57 | 8.55 | 0 | 0 | 0.71 | 2.66 | 4.71 |
| 08:09 | 1 | 22.6 | 57 | 57,193 | 0.55 | 0 | 2.74 | 8.96 | 0 | 0 | 1.43 | 3.14 | 4.02 |
| 08:08 | 1 | 22.5 | 58 | 57,459 | 0.56 | 0 | 2.88 | 10.24 | 0 | 0 | 0.71 | 3.62 | 6.13 |
| 08:06 | 1 | 22.2 | 59 | 57,661 | 0.57 | 0 | 3.07 | 11.49 | 0 | 0 | 0.71 | 3.08 | 4.06 |
| 08:04 | 1 | 22 | 60 | 57,692 | 0.58 | 0 | 3.2 | 12.76 | 9.32 | 0 | 0.71 | 3.54 | 4.77 |
| 08:03 | 1 | 21.8 | 60 | 57,677 | 0.59 | 0 | 3.23 | 10.52 | 0 | 0 | 0.71 | 3.53 | 4.78 |
| 08:02 | 1 | 21.6 | 60 | 57,657 | 0.59 | 0 | 3.21 | 11.64 | 2.9 | 0 | 0.71 | 3.01 | 4.11 |
| 08:00 | 1 | 21.4 | 61 | 57,612 | 0.6 | 0 | 3.18 | 9.14 | 0 | 0 | 1.43 | 3.47 | 4.81 |
| 07:59 | 1 | 21.2 | 62 | 57,579 | 0.61 | 0 | 3.18 | 11.46 | 2.17 | 0 | 1.43 | 2.95 | 4.15 |
| 07:55 | 1 | 20.7 | 63 | 57,500 | 0.6 | 0 | 3.19 | 12.1 | 7.26 | 0 | 0.71 | 2.39 | 4.19 |
| 07:52 | 1 | 20.2 | 64 | 57,356 | 0.62 | 0 | 3.07 | 11.87 | 9.28 | 0 | 1.43 | 3.32 | 4.89 |